N39YL KSGF-KTUL

Flight info

Callsign N39YL
Flight time 0h 50m
Altitude 14000
Route VINTA VINTA3
Aircraft BE9L/L-VGDW/C

Departure

Time 2026-05-07 14:17
Airport Springfield Branson National Airport (KSGF)

Arrival

Time 2026-05-07 15:08
Airport Tulsa International Airport (KTUL)
Time Latitude Longitude Altitude Speed Heading
2026-05-07 14:04 37.25012 -93.38435 1271 ft 0 kts 249°
2026-05-07 14:13 37.25012 -93.38436 1271 ft 2 kts 249°
2026-05-07 14:13 37.25018 -93.38404 1271 ft 12 kts 47°
2026-05-07 14:13 37.25035 -93.38377 1271 ft 4 kts 74°
2026-05-07 14:14 37.25056 -93.38326 1271 ft 12 kts 19°
2026-05-07 14:14 37.25164 -93.38274 1271 ft 20 kts 19°
2026-05-07 14:14 37.25277 -93.38217 1271 ft 1 kts 23°
2026-05-07 14:14 37.25326 -93.38191 1271 ft 13 kts 24°
2026-05-07 14:15 37.25364 -93.38144 1271 ft 0 kts 73°
2026-05-07 14:16 37.25356 -93.38086 1271 ft 12 kts 108°
2026-05-07 14:16 37.25290 -93.38059 1271 ft 1 kts 200°
2026-05-07 14:16 37.25149 -93.38129 1271 ft 64 kts 201°
2026-05-07 14:17 37.24530 -93.38436 1318 ft 116 kts 201°
2026-05-07 14:17 37.23717 -93.38814 1557 ft 135 kts 200°
2026-05-07 14:17 37.22780 -93.39250 1816 ft 154 kts 200°
2026-05-07 14:17 37.21735 -93.39736 2074 ft 167 kts 200°
2026-05-07 14:18 37.20620 -93.40260 2330 ft 174 kts 203°
2026-05-07 14:18 37.19805 -93.41369 2578 ft 181 kts 246°
2026-05-07 14:18 37.19337 -93.42860 2834 ft 183 kts 247°
2026-05-07 14:18 37.18881 -93.44366 3084 ft 184 kts 247°
2026-05-07 14:19 37.18435 -93.45871 3332 ft 184 kts 247°
2026-05-07 14:19 37.17995 -93.47378 3579 ft 183 kts 247°
2026-05-07 14:19 37.17560 -93.48883 3827 ft 182 kts 247°
2026-05-07 14:19 37.17133 -93.50368 4072 ft 181 kts 247°
2026-05-07 14:20 37.16709 -93.51842 4317 ft 180 kts 248°
2026-05-07 14:20 37.16285 -93.53318 4563 ft 179 kts 248°
2026-05-07 14:20 37.15860 -93.54803 4812 ft 177 kts 248°
2026-05-07 14:20 37.15445 -93.56248 5056 ft 176 kts 248°
2026-05-07 14:21 37.15034 -93.57684 5301 ft 174 kts 248°
2026-05-07 14:21 37.14627 -93.59102 5545 ft 172 kts 248°
2026-05-07 14:21 37.14228 -93.60493 5868 ft 166 kts 248°
2026-05-07 14:21 37.13782 -93.61813 6209 ft 161 kts 249°
2026-05-07 14:22 37.13435 -93.63113 6505 ft 159 kts 250°
2026-05-07 14:22 37.13072 -93.64428 6734 ft 160 kts 249°
2026-05-07 14:22 37.12693 -93.65778 6942 ft 162 kts 249°
2026-05-07 14:22 37.12320 -93.67096 7192 ft 161 kts 249°
2026-05-07 14:23 37.11946 -93.68410 7443 ft 159 kts 249°
2026-05-07 14:23 37.11576 -93.69701 7760 ft 154 kts 250°
2026-05-07 14:23 37.11219 -93.70941 8105 ft 149 kts 251°
2026-05-07 14:23 37.10871 -93.72151 8348 ft 150 kts 251°
2026-05-07 14:24 37.10513 -93.73396 8572 ft 151 kts 252°
2026-05-07 14:24 37.10154 -93.74648 8776 ft 153 kts 252°
2026-05-07 14:24 37.09791 -93.75906 8979 ft 154 kts 252°
2026-05-07 14:24 37.09424 -93.77181 9183 ft 155 kts 253°
2026-05-07 14:25 37.09055 -93.78462 9387 ft 155 kts 253°
2026-05-07 14:25 37.08689 -93.79730 9590 ft 155 kts 254°
2026-05-07 14:25 37.08325 -93.80991 9791 ft 155 kts 254°
2026-05-07 14:25 37.07957 -93.82262 9983 ft 155 kts 255°
2026-05-07 14:26 37.07587 -93.83545 10140 ft 157 kts 255°
2026-05-07 14:26 37.07216 -93.84830 10293 ft 158 kts 255°
2026-05-07 14:26 37.06837 -93.86142 10449 ft 159 kts 255°
2026-05-07 14:26 37.06463 -93.87434 10601 ft 159 kts 255°
2026-05-07 14:27 37.06081 -93.88751 10755 ft 159 kts 255°
2026-05-07 14:27 37.05703 -93.90056 10908 ft 159 kts 255°
2026-05-07 14:27 37.05330 -93.91344 11059 ft 159 kts 255°
2026-05-07 14:27 37.04948 -93.92660 11214 ft 158 kts 256°
2026-05-07 14:28 37.04571 -93.93960 11366 ft 158 kts 256°
2026-05-07 14:28 37.04195 -93.95252 11518 ft 157 kts 256°
2026-05-07 14:28 37.03820 -93.96543 11670 ft 157 kts 256°
2026-05-07 14:28 37.03448 -93.97823 11822 ft 157 kts 256°
2026-05-07 14:29 37.03075 -93.99107 11974 ft 156 kts 256°
2026-05-07 14:29 37.02710 -94.00360 12201 ft 152 kts 256°
2026-05-07 14:29 37.02349 -94.01599 12401 ft 145 kts 257°
2026-05-07 14:29 37.02011 -94.02757 12595 ft 141 kts 257°
2026-05-07 14:30 37.01677 -94.03909 12766 ft 141 kts 257°
2026-05-07 14:30 37.01339 -94.05070 12918 ft 142 kts 257°
2026-05-07 14:30 37.01002 -94.06227 13069 ft 142 kts 257°
2026-05-07 14:30 37.00666 -94.07381 13218 ft 142 kts 257°
2026-05-07 14:31 37.00322 -94.08561 13371 ft 142 kts 257°
2026-05-07 14:31 36.99984 -94.09718 13520 ft 142 kts 257°
2026-05-07 14:31 36.99645 -94.10882 13670 ft 142 kts 256°
2026-05-07 14:31 36.99301 -94.12058 13821 ft 142 kts 256°
2026-05-07 14:32 36.98962 -94.13216 13951 ft 143 kts 256°
2026-05-07 14:32 36.98615 -94.14408 13979 ft 149 kts 256°
2026-05-07 14:32 36.98249 -94.15663 13983 ft 155 kts 256°
2026-05-07 14:32 36.97877 -94.16934 13982 ft 158 kts 256°
2026-05-07 14:33 36.97492 -94.18249 13982 ft 161 kts 256°
2026-05-07 14:33 36.97106 -94.19566 13981 ft 163 kts 255°
2026-05-07 14:33 36.96711 -94.20911 13981 ft 164 kts 255°
2026-05-07 14:33 36.96321 -94.22242 13980 ft 165 kts 255°
2026-05-07 14:34 36.95920 -94.23608 13980 ft 166 kts 255°
2026-05-07 14:34 36.95519 -94.24972 13980 ft 167 kts 255°
2026-05-07 14:34 36.95121 -94.26325 13980 ft 167 kts 255°
2026-05-07 14:34 36.94719 -94.27696 13980 ft 168 kts 255°
2026-05-07 14:35 36.94318 -94.29058 13980 ft 168 kts 255°
2026-05-07 14:35 36.93913 -94.30435 13980 ft 168 kts 255°
2026-05-07 14:35 36.93507 -94.31816 13979 ft 168 kts 255°
2026-05-07 14:35 36.93105 -94.33180 13979 ft 168 kts 255°
2026-05-07 14:36 36.92699 -94.34560 13979 ft 168 kts 255°
2026-05-07 14:36 36.92291 -94.35945 13979 ft 168 kts 255°
2026-05-07 14:36 36.91886 -94.37316 13979 ft 168 kts 255°
2026-05-07 14:36 36.91480 -94.38692 13979 ft 168 kts 255°
2026-05-07 14:37 36.91079 -94.40054 13979 ft 168 kts 255°
2026-05-07 14:37 36.90269 -94.42796 13978 ft 168 kts 255°
2026-05-07 14:37 36.89857 -94.44189 13977 ft 168 kts 255°
2026-05-07 14:38 36.89452 -94.45557 13977 ft 168 kts 255°
2026-05-07 14:38 36.89046 -94.46930 13977 ft 168 kts 255°
2026-05-07 14:38 36.88640 -94.48301 13977 ft 168 kts 255°
2026-05-07 14:38 36.88234 -94.49674 13976 ft 168 kts 255°
2026-05-07 14:39 36.87836 -94.51015 13976 ft 167 kts 255°
2026-05-07 14:39 36.87430 -94.52384 13976 ft 167 kts 255°
2026-05-07 14:39 36.87027 -94.53742 13976 ft 168 kts 255°
2026-05-07 14:39 36.86621 -94.55111 13976 ft 168 kts 255°
2026-05-07 14:40 36.86211 -94.56492 13976 ft 169 kts 255°
2026-05-07 14:40 36.85804 -94.57862 13976 ft 169 kts 255°
2026-05-07 14:40 36.85397 -94.59232 13976 ft 169 kts 255°
2026-05-07 14:40 36.84987 -94.60611 13976 ft 169 kts 255°
2026-05-07 14:41 36.84576 -94.61990 13975 ft 169 kts 255°
2026-05-07 14:41 36.84170 -94.63357 13975 ft 169 kts 255°
2026-05-07 14:41 36.83756 -94.64747 13975 ft 169 kts 255°
2026-05-07 14:41 36.83344 -94.66131 13982 ft 169 kts 255°
2026-05-07 14:42 36.82935 -94.67504 13984 ft 170 kts 255°
2026-05-07 14:42 36.82523 -94.68883 13984 ft 170 kts 255°
2026-05-07 14:42 36.82104 -94.70287 13984 ft 171 kts 255°
2026-05-07 14:42 36.81740 -94.71508 13983 ft 171 kts 255°
2026-05-07 14:43 36.81330 -94.72882 13983 ft 171 kts 255°
2026-05-07 14:43 36.80911 -94.74284 13983 ft 171 kts 255°
2026-05-07 14:43 36.80493 -94.75681 13983 ft 171 kts 255°
2026-05-07 14:43 36.80074 -94.77083 13983 ft 171 kts 255°
2026-05-07 14:44 36.79653 -94.78490 13899 ft 175 kts 255°
2026-05-07 14:44 36.79221 -94.79936 13742 ft 181 kts 254°
2026-05-07 14:44 36.78778 -94.81416 13548 ft 186 kts 254°
2026-05-07 14:44 36.78316 -94.82961 13310 ft 192 kts 254°
2026-05-07 14:45 36.77846 -94.84528 13088 ft 195 kts 254°
2026-05-07 14:45 36.77367 -94.86121 12985 ft 192 kts 254°
2026-05-07 14:45 36.76836 -94.87620 12774 ft 191 kts 252°
2026-05-07 14:45 36.76306 -94.89164 12489 ft 192 kts 252°
2026-05-07 14:46 36.75803 -94.90714 12240 ft 192 kts 253°
2026-05-07 14:46 36.75320 -94.92254 12015 ft 192 kts 253°
2026-05-07 14:46 36.74846 -94.93806 11808 ft 192 kts 253°
2026-05-07 14:46 36.74379 -94.95357 11609 ft 191 kts 253°
2026-05-07 14:47 36.73915 -94.96909 11413 ft 190 kts 253°
2026-05-07 14:47 36.73445 -94.98467 11105 ft 197 kts 255°
2026-05-07 14:47 36.72971 -95.00068 10861 ft 199 kts 256°
2026-05-07 14:47 36.72489 -95.01703 10665 ft 200 kts 256°
2026-05-07 14:48 36.72010 -95.03326 10472 ft 201 kts 256°
2026-05-07 14:48 36.71523 -95.04978 10288 ft 202 kts 256°
2026-05-07 14:48 36.71057 -95.06590 10209 ft 196 kts 254°
2026-05-07 14:48 36.70588 -95.08168 10048 ft 192 kts 253°
2026-05-07 14:49 36.70136 -95.09695 9988 ft 184 kts 254°
2026-05-07 14:49 36.69691 -95.11206 9983 ft 185 kts 254°
2026-05-07 14:49 36.69246 -95.12719 9983 ft 187 kts 254°
2026-05-07 14:49 36.68794 -95.14259 9983 ft 187 kts 253°
2026-05-07 14:50 36.68337 -95.15813 9983 ft 188 kts 253°
2026-05-07 14:50 36.67885 -95.17354 9984 ft 188 kts 253°
2026-05-07 14:50 36.67430 -95.18903 9984 ft 188 kts 253°
2026-05-07 14:50 36.66980 -95.20441 9985 ft 188 kts 253°
2026-05-07 14:51 36.66526 -95.21989 9985 ft 188 kts 253°
2026-05-07 14:51 36.66078 -95.23521 9986 ft 188 kts 253°
2026-05-07 14:51 36.65630 -95.25055 9986 ft 188 kts 253°
2026-05-07 14:51 36.65180 -95.26592 9987 ft 187 kts 253°
2026-05-07 14:52 36.64740 -95.28098 9987 ft 187 kts 253°
2026-05-07 14:52 36.64290 -95.29639 9988 ft 187 kts 253°
2026-05-07 14:52 36.63847 -95.31154 9988 ft 187 kts 253°
2026-05-07 14:52 36.63407 -95.32664 9988 ft 187 kts 253°
2026-05-07 14:53 36.62828 -95.34135 9990 ft 190 kts 239°
2026-05-07 14:53 36.62077 -95.35500 9988 ft 190 kts 240°
2026-05-07 14:53 36.61311 -95.36851 9988 ft 190 kts 239°
2026-05-07 14:53 36.60531 -95.38203 9988 ft 190 kts 239°
2026-05-07 14:54 36.59750 -95.39543 9988 ft 190 kts 239°
2026-05-07 14:54 36.58973 -95.40868 9986 ft 190 kts 239°
2026-05-07 14:54 36.58186 -95.42202 9904 ft 189 kts 238°
2026-05-07 14:54 36.57413 -95.43512 9719 ft 189 kts 238°
2026-05-07 14:55 36.56637 -95.44826 9444 ft 189 kts 238°
2026-05-07 14:55 36.55857 -95.46143 9137 ft 188 kts 238°
2026-05-07 14:55 36.55088 -95.47443 8807 ft 188 kts 237°
2026-05-07 14:55 36.54302 -95.48769 8482 ft 187 kts 237°
2026-05-07 14:56 36.53539 -95.50055 8173 ft 186 kts 237°
2026-05-07 14:56 36.52768 -95.51354 7865 ft 186 kts 237°
2026-05-07 14:56 36.52006 -95.52636 7567 ft 185 kts 236°
2026-05-07 14:56 36.51230 -95.53944 7269 ft 185 kts 236°
2026-05-07 14:57 36.50473 -95.55216 6985 ft 184 kts 236°
2026-05-07 14:57 36.49715 -95.56491 6720 ft 183 kts 236°
2026-05-07 14:57 36.48961 -95.57759 6369 ft 183 kts 235°
2026-05-07 14:57 36.48209 -95.59025 6027 ft 183 kts 235°
2026-05-07 14:58 36.47454 -95.60292 5691 ft 183 kts 234°
2026-05-07 14:58 36.46703 -95.61555 5362 ft 182 kts 234°
2026-05-07 14:58 36.45947 -95.62822 5036 ft 182 kts 234°
2026-05-07 14:58 36.45194 -95.64087 4716 ft 182 kts 234°
2026-05-07 14:59 36.44430 -95.65367 4399 ft 182 kts 233°
2026-05-07 14:59 36.43679 -95.66626 4099 ft 181 kts 233°
2026-05-07 14:59 36.42931 -95.67880 4012 ft 182 kts 233°
2026-05-07 14:59 36.42174 -95.69148 3999 ft 180 kts 232°
2026-05-07 15:00 36.41439 -95.70379 3791 ft 179 kts 232°
2026-05-07 15:00 36.40698 -95.71621 3476 ft 180 kts 232°
2026-05-07 15:00 36.39949 -95.72874 3183 ft 180 kts 232°
2026-05-07 15:00 36.39199 -95.74129 2896 ft 180 kts 232°
2026-05-07 15:01 36.38456 -95.75373 2617 ft 180 kts 232°
2026-05-07 15:01 36.37507 -95.76294 2513 ft 170 kts 207°
2026-05-07 15:01 36.36774 -95.77349 2501 ft 160 kts 236°
2026-05-07 15:01 36.36182 -95.78489 2498 ft 155 kts 235°
2026-05-07 15:02 36.35589 -95.79603 2499 ft 154 kts 234°
2026-05-07 15:02 36.34987 -95.80710 2500 ft 154 kts 234°
2026-05-07 15:02 36.34399 -95.81820 2496 ft 155 kts 237°
2026-05-07 15:02 36.33939 -95.83048 2470 ft 156 kts 246°
2026-05-07 15:03 36.33568 -95.84183 2370 ft 134 kts 245°
2026-05-07 15:03 36.33202 -95.85200 2174 ft 124 kts 241°
2026-05-07 15:03 36.32624 -95.85934 1999 ft 115 kts 215°
2026-05-07 15:03 36.31982 -95.86596 1604 ft 127 kts 219°
2026-05-07 15:04 36.31313 -95.87212 1520 ft 114 kts 210°
2026-05-07 15:04 36.30590 -95.87521 1480 ft 107 kts 187°
2026-05-07 15:04 36.29791 -95.87554 1220 ft 120 kts 182°
2026-05-07 15:04 36.28941 -95.87597 1123 ft 126 kts 182°
2026-05-07 15:05 36.28052 -95.87605 1444 ft 132 kts 180°
2026-05-07 15:05 36.27128 -95.87608 1563 ft 130 kts 182°
2026-05-07 15:05 36.26228 -95.87688 1463 ft 133 kts 186°
2026-05-07 15:05 36.25295 -95.87841 1281 ft 141 kts 188°
2026-05-07 15:06 36.24311 -95.87965 1103 ft 134 kts 184°
2026-05-07 15:06 36.23477 -95.88013 1053 ft 110 kts 183°
2026-05-07 15:06 36.22746 -95.88044 934 ft 104 kts 182°
2026-05-07 15:06 36.22009 -95.88074 834 ft 104 kts 184°
2026-05-07 15:07 36.21285 -95.88131 696 ft 104 kts 185°
2026-05-07 15:07 36.20622 -95.88191 679 ft 74 kts 182°
2026-05-07 15:07 36.20192 -95.88213 679 ft 52 kts 185°
2026-05-07 15:07 36.19797 -95.88241 679 ft 62 kts 184°
2026-05-07 15:08 36.19427 -95.88269 679 ft 23 kts 181°
2026-05-07 15:08 36.19230 -95.88334 679 ft 26 kts 218°
2026-05-07 15:08 36.19131 -95.88482 679 ft 16 kts 290°
2026-05-07 15:08 36.19217 -95.88631 679 ft 25 kts 306°
2026-05-07 15:09 36.19334 -95.88817 679 ft 29 kts 309°
2026-05-07 15:09 36.19436 -95.88945 679 ft 20 kts 292°
2026-05-07 15:09 36.19440 -95.89121 679 ft 19 kts 269°
2026-05-07 15:09 36.19379 -95.89249 679 ft 19 kts 182°
2026-05-07 15:10 36.19280 -95.89265 679 ft 0 kts 175°